Location: Blackfish
(35.0662°N, 90.5820°W)
Time: 13:25:28
(UTC+00:00)

Daily predictions for brighter satellites

Satellite Brightness Start Highest point End
(mag) Time Altitude Azimuth Time Altitude Azimuth Time Altitude Azimuth
Cosmos 1933 4.3 12:01:33 14° NW 12:04:00 24° W 12:07:06 10° SW
SKYMED 2 4.5 12:03:34 10° SSW 12:07:18 28° W 12:11:03 10° NW
Cosmos 1814 Rocket 4.1 12:03:24 10° SSW 12:08:35 80° ESE 12:13:51 10° NNE
USA 267 4.2 12:03:35 10° NE 12:09:57 52° SE 12:16:15 10° SSW
Meteor 1-26 Rocket 4.3 12:04:52 10° N 12:10:26 84° E 12:16:10 10° S
NOSS 2-1 (C) 3.6 12:06:30 10° NNW 12:10:27 84° WSW 12:16:00 10° SSE
Cosmos 2322 Rocket 3.6 12:07:33 10° N 12:12:51 38° ENE 12:18:05 10° SE
COSMO-SKYMED 1 3.1 12:10:01 10° SSW 12:13:45 34° W 12:17:32 10° NNW
CBERS-1 4.0 12:09:15 10° N 12:14:20 71° WNW 12:19:22 10° SSW
Cosmos 2058 Rocket 3.0 12:12:00 10° N 12:16:26 78° W 12:20:48 10° S
ATLAS 2AS CENTAUR R/B 3.8 12:10:09 10° S 12:17:01 52° ESE 12:23:43 10° NE
Cosmos-2242 2.9 12:14:04 10° N 12:18:18 81° W 12:22:27 10° S
CZ-3C R/B 3.9 12:14:31 10° SW 12:19:48 35° SSE 12:48:56 10° ESE
COSMOS 2406 4.2 12:16:29 10° WSW 12:20:58 24° WNW 12:25:29 10° N
Cosmos 2237 4.5 12:17:02 10° NNW 12:22:31 50° WSW 12:27:58 10° S
Thor Agena Rocket 3.5 12:19:32 10° NNE 12:24:36 84° WNW 12:29:37 10° SSW
SMAP 3.1 12:20:34 10° NNE 12:25:14 88° WNW 12:29:54 10° SSW
IRIDIUM 106 4.3 12:20:35 10° S 12:25:47 81° W 12:31:02 10° N
Landsat 7 3.9 12:26:47 10° NNE 12:31:28 84° ESE 12:36:06 10° S
CENTAUR R/B 4.3 23:08:05 10° W 23:12:20 22° NW 23:17:18 10° N
NOSS 2-2 (E) 4.4 23:14:26 10° SW 23:17:58 35° WNW 23:20:55 10° NNE
SL-16 R/B 3.5 23:12:08 10° N 23:18:07 51° WNW 23:24:03 10° SW
ATLAS CENTAUR R/B 2.7 23:17:54 10° NNE 23:19:09 12° NE 23:20:21 10° ENE
Cosmos 1697 Rocket 3.3 23:15:30 10° SSE 23:20:32 35° ESE 23:25:35 10° NE
Cosmos 1484 Rocket 3.5 23:17:35 10° S 23:21:02 52° W 23:24:28 10° NNW
BlueWalker 3 3.6 23:19:15 10° N 23:21:31 16° NNE 23:23:47 10° ENE
Cosmos 1743 3.1 23:18:44 10° NNE 23:21:35 28° E 23:24:26 10° SE
SMAP 3.1 23:20:15 10° SSE 23:24:50 63° ENE 23:29:27 10° N
Cosmos 1626 Rocket 3.5 23:20:37 10° N 23:24:55 70° E 23:29:11 10° SSE
CBERS-1 4.5 23:20:47 10° S 23:25:51 69° WSW 23:30:58 10° NNW
Cosmos 1606 Rocket 4.4 23:22:46 10° SSE 23:26:32 29° E 23:30:20 10° NNE
Cosmos 1461 2.7 23:23:45 10° SSW 23:27:32 68° ESE 23:31:26 10° NE
Gbstr 26 Del rocket 2.8 23:23:32 10° SW 23:27:51 73° SE 23:31:37 10° NE
SAR-Lupe-3 4.4 23:26:54 10° NNE 23:29:13 32° E 23:31:31 10° SSE
Cosmos 2151 3.5 23:26:13 10° NNE 23:30:03 35° E 23:33:51 10° SE
Landsat 7 3.8 23:26:24 10° SSE 23:30:54 55° ENE 23:35:27 10° N
IRS-1C 4.2 23:26:04 10° SSE 23:31:14 55° ENE 23:36:25 10° N
Cosmos 1544 Rocket 4.3 23:31:06 10° SSW 23:35:23 57° W 23:39:44 10° N
Thor Agena Rocket 3.8 23:32:17 10° S 23:37:31 77° WSW 23:42:44 10° NNW
SAR-Lupe-4 3.4 23:38:05 10° SSE 23:41:36 66° ENE 23:45:08 10° N
Cosmos 1733 1.9 23:40:11 10° NNW 23:42:02 57° W 23:43:51 10° S
Okean 1-7 Rocket 4.1 23:39:01 10° NNE 23:43:03 36° E 23:47:03 10° SE
SAR-Lupe-1 3.9 23:45:34 10° SSE 23:49:07 71° ENE 23:52:42 10° N
Cosmos 1503 Rocket 4.2 23:46:54 10° SSW 23:52:10 78° WNW 23:57:25 10° NNE
Cosmos 1726 Rocket 4.0 23:48:31 10° SSE 23:52:54 44° E 23:57:18 10° NNE
